Time,TemperatureF,DewpointF,PressureIn,WindDirection,WindDirectionDegrees,WindSpeedMPH,WindSpeedGustMPH,Humidity,HourlyPrecipIn,Conditions,Clouds,dailyrainin,SolarRadiationWatts/m^2,SoftwareType,DateUTC
2013-06-07 00:03:00,52.0,49.2,30.07,NNE,17,1.0,1.0,90,0.00,,,0.00,0,Wunderground v.1.15,2013-06-07 05:03:00,
2013-06-07 00:09:00,51.9,49.1,30.07,NNE,17,0.0,1.0,90,0.00,,,0.00,0,Wunderground v.1.15,2013-06-07 05:09:00,
2013-06-07 00:14:00,51.9,49.1,30.07,NNE,17,0.0,0.0,90,0.00,,,0.00,0,Wunderground v.1.15,2013-06-07 05:14:00,
2013-06-07 00:20:00,51.8,49.3,30.07,NNE,17,0.0,0.0,91,0.00,,,0.00,0,Wunderground v.1.15,2013-06-07 05:20:00,
2013-06-07 00:25:00,51.8,49.3,30.07,NNE,17,0.0,0.0,91,0.00,,,0.00,0,Wunderground v.1.15,2013-06-07 05:25:00,
2013-06-07 00:30:00,51.8,49.3,30.06,NNE,17,0.0,0.0,91,0.00,,,0.00,0,Wunderground v.1.15,2013-06-07 05:30:00,
2013-06-07 00:35:00,51.8,49.3,30.06,NNE,17,0.0,0.0,91,0.00,,,0.00,0,Wunderground v.1.15,2013-06-07 05:35:00,
2013-06-07 00:41:00,51.7,49.2,30.07,NNE,17,0.0,0.0,91,0.00,,,0.00,0,Wunderground v.1.15,2013-06-07 05:41:00,
2013-06-07 00:47:00,51.6,48.5,30.07,NNE,13,3.0,3.0,89,0.00,,,0.00,0,Wunderground v.1.15,2013-06-07 05:47:00,
2013-06-07 00:52:00,51.6,48.2,30.07,North,360,0.0,0.0,88,0.00,,,0.00,0,Wunderground v.1.15,2013-06-07 05:52:00,
2013-06-07 00:57:00,51.6,47.5,30.07,North,360,0.0,0.0,86,0.00,,,0.00,0,Wunderground v.1.15,2013-06-07 05:57:00,
2013-06-07 01:02:00,51.8,47.7,30.07,North,360,0.0,0.0,86,0.00,,,0.00,0,Wunderground v.1.15,2013-06-07 06:02:00,
2013-06-07 01:07:00,51.9,47.8,30.06,North,360,0.0,0.0,86,0.00,,,0.00,0,Wunderground v.1.15,2013-06-07 06:07:00,
2013-06-07 01:12:00,52.0,48.3,30.06,North,360,0.0,0.0,87,0.00,,,0.00,0,Wunderground v.1.15,2013-06-07 06:12:00,
2013-06-07 01:17:00,51.9,48.2,30.06,North,360,0.0,0.0,87,0.00,,,0.00,0,Wunderground v.1.15,2013-06-07 06:17:00,
2013-06-07 01:22:00,51.9,48.8,30.06,North,360,0.0,0.0,89,0.00,,,0.00,0,Wunderground v.1.15,2013-06-07 06:22:00,
2013-06-07 01:28:00,51.8,49.0,30.07,North,360,0.0,0.0,90,0.00,,,0.00,0,Wunderground v.1.15,2013-06-07 06:28:00,
2013-06-07 01:33:00,51.6,48.8,30.06,North,360,0.0,0.0,90,0.00,,,0.00,0,Wunderground v.1.15,2013-06-07 06:33:00,
2013-06-07 01:39:00,51.5,49.0,30.06,North,360,0.0,0.0,91,0.00,,,0.00,0,Wunderground v.1.15,2013-06-07 06:39:00,
2013-06-07 01:45:00,51.4,48.9,30.06,North,360,0.0,3.0,91,0.00,,,0.00,0,Wunderground v.1.15,2013-06-07 06:45:00,
2013-06-07 01:50:00,51.3,48.8,30.06,North,355,0.0,1.0,91,0.00,,,0.00,0,Wunderground v.1.15,2013-06-07 06:50:00,
2013-06-07 01:55:00,51.2,48.7,30.06,NNW,331,0.0,7.0,91,0.00,,,0.00,0,Wunderground v.1.15,2013-06-07 06:55:00,
2013-06-07 02:00:00,51.3,48.8,30.06,NNW,327,1.0,1.0,91,0.00,,,0.01,0,Wunderground v.1.15,2013-06-07 07:00:00,
2013-06-07 02:05:00,51.2,48.7,30.06,NNW,333,1.0,7.0,91,0.00,,,0.01,0,Wunderground v.1.15,2013-06-07 07:05:00,
2013-06-07 02:10:00,51.2,48.7,30.06,NNW,343,0.0,2.0,91,0.00,,,0.01,0,Wunderground v.1.15,2013-06-07 07:10:00,
2013-06-07 02:15:00,51.1,48.6,30.05,North,351,0.0,4.0,91,0.00,,,0.01,0,Wunderground v.1.15,2013-06-07 07:15:00,
2013-06-07 02:20:00,51.0,48.5,30.05,North,11,2.0,2.0,91,0.00,,,0.01,0,Wunderground v.1.15,2013-06-07 07:20:00,
2013-06-07 02:25:00,50.8,48.3,30.06,North,355,0.0,6.0,91,0.00,,,0.01,0,Wunderground v.1.15,2013-06-07 07:25:00,
2013-06-07 02:30:00,50.6,48.1,30.05,North,11,5.0,6.0,91,0.00,,,0.01,0,Wunderground v.1.15,2013-06-07 07:30:00,
2013-06-07 02:35:00,50.5,48.0,30.05,NNE,19,0.0,6.0,91,0.00,,,0.01,0,Wunderground v.1.15,2013-06-07 07:35:00,
2013-06-07 02:40:00,50.4,47.9,30.06,North,5,0.0,1.0,91,0.00,,,0.01,0,Wunderground v.1.15,2013-06-07 07:40:00,
2013-06-07 02:45:00,50.3,47.8,30.06,North,351,6.0,7.0,91,0.00,,,0.01,0,Wunderground v.1.15,2013-06-07 07:45:00,
2013-06-07 02:50:00,50.3,47.8,30.06,NNW,344,4.0,6.0,91,0.00,,,0.01,0,Wunderground v.1.15,2013-06-07 07:50:00,
2013-06-07 02:55:00,50.2,47.7,30.06,North,360,0.0,6.0,91,0.00,,,0.01,0,Wunderground v.1.15,2013-06-07 07:55:00,
2013-06-07 03:00:00,50.1,47.6,30.06,NNW,345,2.0,6.0,91,0.00,,,0.01,0,Wunderground v.1.15,2013-06-07 08:00:00,
2013-06-07 03:05:00,50.1,47.3,30.05,NNW,338,2.0,8.0,90,0.00,,,0.01,0,Wunderground v.1.15,2013-06-07 08:05:00,
2013-06-07 03:10:00,50.1,47.3,30.05,NNW,344,1.0,5.0,90,0.00,,,0.01,0,Wunderground v.1.15,2013-06-07 08:10:00,
2013-06-07 03:15:00,50.2,47.4,30.05,NNW,348,5.0,6.0,90,0.00,,,0.01,0,Wunderground v.1.15,2013-06-07 08:15:00,
2013-06-07 03:20:00,50.2,47.4,30.05,NNW,335,0.0,4.0,90,0.00,,,0.01,0,Wunderground v.1.15,2013-06-07 08:20:00,
2013-06-07 03:25:00,50.2,47.4,30.05,North,355,5.0,6.0,90,0.00,,,0.01,0,Wunderground v.1.15,2013-06-07 08:25:00,
2013-06-07 03:30:00,50.3,47.2,30.05,NNE,13,0.0,2.0,89,0.00,,,0.01,0,Wunderground v.1.15,2013-06-07 08:30:00,
2013-06-07 03:35:00,50.3,47.2,30.05,North,10,2.0,7.0,89,0.00,,,0.01,0,Wunderground v.1.15,2013-06-07 08:35:00,
2013-06-07 03:40:00,50.4,48.2,30.05,NNE,25,6.0,6.0,92,0.00,,,0.01,0,Wunderground v.1.15,2013-06-07 08:40:00,
2013-06-07 03:45:00,50.5,47.1,30.05,North,5,3.0,9.0,88,0.00,,,0.01,0,Wunderground v.1.15,2013-06-07 08:45:00,
2013-06-07 03:50:00,50.5,47.1,30.05,North,10,4.0,8.0,88,0.00,,,0.01,0,Wunderground v.1.15,2013-06-07 08:50:00,
2013-06-07 03:55:00,50.6,46.9,30.05,NNE,26,0.0,8.0,87,0.00,,,0.01,0,Wunderground v.1.15,2013-06-07 08:55:00,
2013-06-07 04:00:00,50.7,47.0,30.05,North,355,0.0,3.0,87,0.00,,,0.01,0,Wunderground v.1.15,2013-06-07 09:00:00,
2013-06-07 04:05:00,50.7,47.3,30.05,NNW,348,0.0,6.0,88,0.00,,,0.01,0,Wunderground v.1.15,2013-06-07 09:05:00,
2013-06-07 04:10:00,50.7,47.3,30.05,North,11,0.0,2.0,88,0.00,,,0.01,0,Wunderground v.1.15,2013-06-07 09:10:00,
2013-06-07 04:15:00,50.7,47.3,30.05,North,350,0.0,7.0,88,0.00,,,0.01,0,Wunderground v.1.15,2013-06-07 09:15:00,
2013-06-07 04:20:00,50.7,47.3,30.05,North,351,0.0,7.0,88,0.00,,,0.01,0,Wunderground v.1.15,2013-06-07 09:20:00,
2013-06-07 04:25:00,50.6,47.2,30.05,NNW,340,4.0,7.0,88,0.00,,,0.01,0,Wunderground v.1.15,2013-06-07 09:25:00,
2013-06-07 04:30:00,50.6,47.5,30.05,NNW,346,0.0,1.0,89,0.00,,,0.01,0,Wunderground v.1.15,2013-06-07 09:30:00,
2013-06-07 04:35:00,50.6,47.5,30.05,North,360,0.0,7.0,89,0.00,,,0.01,0,Wunderground v.1.15,2013-06-07 09:35:00,
2013-06-07 04:41:00,50.5,47.4,30.05,North,350,0.0,2.0,89,0.00,,,0.01,0,Wunderground v.1.15,2013-06-07 09:41:00,
2013-06-07 04:46:00,50.5,47.4,30.05,NNE,25,2.0,7.0,89,0.00,,,0.01,0,Wunderground v.1.15,2013-06-07 09:46:00,
2013-06-07 04:51:00,50.5,47.4,30.05,NNW,344,0.0,6.0,89,0.00,,,0.01,0,Wunderground v.1.15,2013-06-07 09:51:00,
2013-06-07 04:56:00,50.5,47.4,30.05,North,5,0.0,6.0,89,0.00,,,0.01,0,Wunderground v.1.15,2013-06-07 09:56:00,
2013-06-07 05:01:00,50.4,47.3,30.05,North,360,0.0,4.0,89,0.00,,,0.01,0,Wunderground v.1.15,2013-06-07 10:01:00,
2013-06-07 05:06:00,50.4,47.3,30.05,North,360,0.0,4.0,89,0.00,,,0.01,0,Wunderground v.1.15,2013-06-07 10:06:00,
2013-06-07 05:11:00,50.3,47.5,30.05,North,355,0.0,1.0,90,0.00,,,0.01,0,Wunderground v.1.15,2013-06-07 10:11:00,
2013-06-07 05:16:00,50.2,47.4,30.05,North,10,1.0,4.0,90,0.00,,,0.01,0,Wunderground v.1.15,2013-06-07 10:16:00,
2013-06-07 05:21:00,50.1,47.3,30.05,North,9,0.0,1.0,90,0.00,,,0.01,0,Wunderground v.1.15,2013-06-07 10:21:00,
2013-06-07 05:26:00,50.0,47.2,30.05,North,360,0.0,2.0,90,0.00,,,0.01,5,Wunderground v.1.15,2013-06-07 10:26:00,
2013-06-07 05:31:00,50.0,47.5,30.06,North,5,3.0,3.0,91,0.00,,,0.01,7,Wunderground v.1.15,2013-06-07 10:31:00,
2013-06-07 05:36:00,49.9,47.4,30.06,NNW,342,2.0,8.0,91,0.00,,,0.01,9,Wunderground v.1.15,2013-06-07 10:36:00,
2013-06-07 05:41:00,49.9,47.4,30.06,NNW,345,0.0,1.0,91,0.00,,,0.01,12,Wunderground v.1.15,2013-06-07 10:41:00,
2013-06-07 05:46:00,49.9,47.4,30.07,NNW,345,0.0,1.0,91,0.00,,,0.01,16,Wunderground v.1.15,2013-06-07 10:46:00,
2013-06-07 05:52:00,49.9,47.4,30.06,NNW,346,0.0,4.0,91,0.00,,,0.01,18,Wunderground v.1.15,2013-06-07 10:52:00,
2013-06-07 05:57:00,49.9,47.4,30.07,NNW,346,0.0,4.0,91,0.00,,,0.01,21,Wunderground v.1.15,2013-06-07 10:57:00,
2013-06-07 06:02:00,49.9,47.7,30.07,NNW,331,1.0,4.0,92,0.00,,,0.01,25,Wunderground v.1.15,2013-06-07 11:02:00,
2013-06-07 06:07:00,50.0,47.8,30.07,NNW,331,0.0,4.0,92,0.00,,,0.01,30,Wunderground v.1.15,2013-06-07 11:07:00,
2013-06-07 06:12:00,50.0,47.8,30.07,NNW,331,0.0,2.0,92,0.00,,,0.01,35,Wunderground v.1.15,2013-06-07 11:12:00,
2013-06-07 06:17:00,50.1,47.9,30.07,NNW,331,0.0,4.0,92,0.00,,,0.01,35,Wunderground v.1.15,2013-06-07 11:17:00,
2013-06-07 06:22:00,50.2,48.0,30.07,NNW,331,0.0,6.0,92,0.00,,,0.01,35,Wunderground v.1.15,2013-06-07 11:22:00,
2013-06-07 06:27:00,50.3,48.1,30.07,NNW,335,0.0,6.0,92,0.00,,,0.01,35,Wunderground v.1.15,2013-06-07 11:27:00,
2013-06-07 06:32:00,50.4,48.2,30.07,NNW,345,0.0,2.0,92,0.00,,,0.01,37,Wunderground v.1.15,2013-06-07 11:32:00,
2013-06-07 06:37:00,50.5,48.3,30.08,NNW,344,0.0,4.0,92,0.00,,,0.01,40,Wunderground v.1.15,2013-06-07 11:37:00,
2013-06-07 06:42:00,50.7,48.5,30.08,NNW,345,0.0,2.0,92,0.00,,,0.01,44,Wunderground v.1.15,2013-06-07 11:42:00,
2013-06-07 06:47:00,50.8,48.6,30.08,NNW,330,1.0,6.0,92,0.00,,,0.01,49,Wunderground v.1.15,2013-06-07 11:47:00,
2013-06-07 06:52:00,50.9,48.7,30.07,NNW,343,1.0,2.0,92,0.00,,,0.01,56,Wunderground v.1.15,2013-06-07 11:52:00,
2013-06-07 06:57:00,51.0,48.5,30.08,NW,317,1.0,6.0,91,0.00,,,0.01,63,Wunderground v.1.15,2013-06-07 11:57:00,
2013-06-07 07:02:00,51.1,48.6,30.08,NW,319,1.0,2.0,91,0.00,,,0.01,79,Wunderground v.1.15,2013-06-07 12:02:00,
2013-06-07 07:07:00,51.3,48.8,30.08,North,10,0.0,5.0,91,0.00,,,0.01,100,Wunderground v.1.15,2013-06-07 12:07:00,
2013-06-07 07:12:00,51.4,48.9,30.08,NNE,19,0.0,5.0,91,0.00,,,0.01,105,Wunderground v.1.15,2013-06-07 12:12:00,
2013-06-07 07:17:00,51.6,48.8,30.09,North,355,0.0,5.0,90,0.00,,,0.01,93,Wunderground v.1.15,2013-06-07 12:17:00,
2013-06-07 07:22:00,51.7,48.9,30.08,North,349,2.0,8.0,90,0.00,,,0.01,91,Wunderground v.1.15,2013-06-07 12:22:00,
2013-06-07 07:28:00,51.9,49.1,30.09,North,350,2.0,8.0,90,0.00,,,0.01,98,Wunderground v.1.15,2013-06-07 12:28:00,
2013-06-07 07:33:00,52.0,48.9,30.09,North,11,0.0,3.0,89,0.00,,,0.01,98,Wunderground v.1.15,2013-06-07 12:33:00,
2013-06-07 07:38:00,52.1,49.0,30.09,North,10,1.0,4.0,89,0.00,,,0.01,111,Wunderground v.1.15,2013-06-07 12:38:00,
2013-06-07 07:43:00,52.2,49.4,30.09,NNE,19,0.0,6.0,90,0.00,,,0.01,123,Wunderground v.1.15,2013-06-07 12:43:00,
2013-06-07 07:48:00,52.4,49.6,30.09,NNE,19,1.0,6.0,90,0.00,,,0.01,123,Wunderground v.1.15,2013-06-07 12:48:00,
2013-06-07 07:53:00,52.5,49.7,30.09,NNE,15,2.0,3.0,90,0.00,,,0.01,111,Wunderground v.1.15,2013-06-07 12:53:00,
2013-06-07 07:58:00,52.6,49.4,30.09,North,5,1.0,6.0,89,0.00,,,0.01,128,Wunderground v.1.15,2013-06-07 12:58:00,
2013-06-07 08:03:00,52.7,49.5,30.09,North,360,1.0,5.0,89,0.00,,,0.01,178,Wunderground v.1.15,2013-06-07 13:03:00,
2013-06-07 08:08:00,52.8,49.6,30.09,NNW,343,1.0,7.0,89,0.00,,,0.01,216,Wunderground v.1.15,2013-06-07 13:08:00,
2013-06-07 08:13:00,53.1,50.2,30.09,NNW,343,0.0,1.0,90,0.00,,,0.01,167,Wunderground v.1.15,2013-06-07 13:13:00,
2013-06-07 08:18:00,53.2,50.0,30.09,North,360,0.0,4.0,89,0.00,,,0.01,171,Wunderground v.1.15,2013-06-07 13:18:00,
2013-06-07 08:23:00,53.3,49.8,30.09,North,5,0.0,6.0,88,0.00,,,0.01,181,Wunderground v.1.15,2013-06-07 13:23:00,
2013-06-07 08:28:00,53.5,50.3,30.09,NNE,13,1.0,6.0,89,0.00,,,0.01,188,Wunderground v.1.15,2013-06-07 13:28:00,
2013-06-07 08:33:00,53.7,50.2,30.10,NNE,21,0.0,3.0,88,0.00,,,0.01,172,Wunderground v.1.15,2013-06-07 13:33:00,
2013-06-07 08:38:00,53.8,50.3,30.09,NW,326,0.0,8.0,88,0.00,,,0.01,160,Wunderground v.1.15,2013-06-07 13:38:00,
2013-06-07 08:43:00,54.0,50.8,30.10,NNW,327,0.0,2.0,89,0.00,,,0.01,149,Wunderground v.1.15,2013-06-07 13:43:00,
2013-06-07 08:48:00,54.2,50.7,30.10,NNW,327,1.0,2.0,88,0.00,,,0.01,151,Wunderground v.1.15,2013-06-07 13:48:00,
2013-06-07 08:53:00,54.3,50.8,30.10,NNW,327,0.0,1.0,88,0.00,,,0.01,169,Wunderground v.1.15,2013-06-07 13:53:00,
2013-06-07 08:58:00,54.4,50.9,30.10,NNW,338,0.0,6.0,88,0.00,,,0.01,186,Wunderground v.1.15,2013-06-07 13:58:00,
2013-06-07 09:03:00,54.5,51.0,30.10,NNW,340,4.0,4.0,88,0.00,,,0.01,230,Wunderground v.1.15,2013-06-07 14:03:00,
2013-06-07 09:08:00,54.8,51.3,30.10,NNW,342,1.0,5.0,88,0.00,,,0.01,260,Wunderground v.1.15,2013-06-07 14:08:00,
2013-06-07 09:14:00,55.2,51.7,30.10,NNE,26,3.0,3.0,88,0.00,,,0.01,297,Wunderground v.1.15,2013-06-07 14:14:00,
2013-06-07 09:19:00,55.5,52.0,30.10,NNE,32,0.0,5.0,88,0.00,,,0.01,281,Wunderground v.1.15,2013-06-07 14:19:00,
2013-06-07 09:24:00,55.9,52.4,30.10,NE,34,0.0,5.0,88,0.00,,,0.01,292,Wunderground v.1.15,2013-06-07 14:24:00,
2013-06-07 09:29:00,56.3,52.5,30.10,NE,36,0.0,5.0,87,0.00,,,0.01,308,Wunderground v.1.15,2013-06-07 14:29:00,
2013-06-07 09:34:00,56.7,53.2,30.10,NE,34,0.0,4.0,88,0.00,,,0.01,338,Wunderground v.1.15,2013-06-07 14:34:00,
2013-06-07 09:39:00,57.1,53.3,30.10,NE,34,0.0,4.0,87,0.00,,,0.01,367,Wunderground v.1.15,2013-06-07 14:39:00,
2013-06-07 09:44:00,57.4,52.9,30.10,NE,34,3.0,4.0,85,0.00,,,0.01,350,Wunderground v.1.15,2013-06-07 14:44:00,
2013-06-07 09:49:00,57.6,52.8,30.10,NE,34,4.0,4.0,84,0.00,,,0.01,339,Wunderground v.1.15,2013-06-07 14:49:00,
2013-06-07 09:54:00,57.8,53.3,30.10,NE,34,1.0,3.0,85,0.00,,,0.01,406,Wunderground v.1.15,2013-06-07 14:54:00,
2013-06-07 09:59:00,58.0,53.2,30.10,NE,34,0.0,3.0,84,0.00,,,0.01,429,Wunderground v.1.15,2013-06-07 14:59:00,
2013-06-07 10:04:00,58.4,53.6,30.10,NE,35,1.0,3.0,84,0.00,,,0.01,394,Wunderground v.1.15,2013-06-07 15:04:00,
2013-06-07 10:09:00,58.7,53.5,30.10,ENE,74,0.0,6.0,83,0.00,,,0.01,404,Wunderground v.1.15,2013-06-07 15:09:00,
2013-06-07 10:14:00,59.0,53.8,30.10,ENE,74,0.0,1.0,83,0.00,,,0.01,406,Wunderground v.1.15,2013-06-07 15:14:00,
2013-06-07 10:19:00,59.3,53.1,30.10,ENE,74,2.0,2.0,80,0.00,,,0.01,397,Wunderground v.1.15,2013-06-07 15:19:00,
2013-06-07 10:24:00,59.3,52.8,30.10,ENE,74,0.0,3.0,79,0.00,,,0.01,390,Wunderground v.1.15,2013-06-07 15:24:00,
2013-06-07 10:29:00,59.3,52.8,30.10,ENE,74,0.0,3.0,79,0.00,,,0.01,394,Wunderground v.1.15,2013-06-07 15:29:00,
2013-06-07 10:34:00,59.4,52.5,30.10,ENE,74,0.0,3.0,78,0.00,,,0.01,411,Wunderground v.1.15,2013-06-07 15:34:00,
2013-06-07 10:39:00,59.8,53.6,30.10,ESE,107,0.0,3.0,80,0.00,,,0.01,396,Wunderground v.1.15,2013-06-07 15:39:00,
2013-06-07 10:44:00,60.0,52.8,30.10,ESE,107,0.0,1.0,77,0.00,,,0.01,406,Wunderground v.1.15,2013-06-07 15:44:00,
2013-06-07 10:49:00,60.4,53.2,30.10,ESE,107,1.0,2.0,77,0.00,,,0.01,1060,Wunderground v.1.15,2013-06-07 15:49:00,
2013-06-07 10:54:00,60.5,53.6,30.09,ESE,107,0.0,5.0,78,0.00,,,0.01,489,Wunderground v.1.15,2013-06-07 15:54:00,
2013-06-07 10:59:00,60.7,54.5,30.09,SE,135,0.0,6.0,80,0.00,,,0.01,967,Wunderground v.1.15,2013-06-07 15:59:00,
2013-06-07 11:04:00,61.3,54.4,30.09,SE,126,1.0,6.0,78,0.00,,,0.01,995,Wunderground v.1.15,2013-06-07 16:04:00,
2013-06-07 11:09:00,61.6,54.0,30.09,SE,126,0.0,6.0,76,0.00,,,0.01,984,Wunderground v.1.15,2013-06-07 16:09:00,
2013-06-07 11:14:00,61.7,53.7,30.09,SE,127,1.0,2.0,75,0.00,,,0.01,664,Wunderground v.1.15,2013-06-07 16:14:00,
2013-06-07 11:19:00,61.8,54.5,30.09,South,188,4.0,5.0,77,0.00,,,0.01,654,Wunderground v.1.15,2013-06-07 16:19:00,
2013-06-07 11:24:00,61.9,55.0,30.09,SSE,157,6.0,7.0,78,0.00,,,0.01,979,Wunderground v.1.15,2013-06-07 16:24:00,
2013-06-07 11:29:00,62.1,55.2,30.09,SSE,160,0.0,7.0,78,0.00,,,0.01,640,Wunderground v.1.15,2013-06-07 16:29:00,
2013-06-07 11:34:00,62.4,54.7,30.09,South,177,0.0,6.0,76,0.00,,,0.01,473,Wunderground v.1.15,2013-06-07 16:34:00,
2013-06-07 11:39:00,62.8,54.8,30.09,South,177,0.0,6.0,75,0.00,,,0.01,1028,Wunderground v.1.15,2013-06-07 16:39:00,
2013-06-07 11:45:00,63.5,53.5,30.09,SSE,160,9.0,9.0,70,0.00,,,0.01,1025,Wunderground v.1.15,2013-06-07 16:45:00,
2013-06-07 11:50:00,64.0,53.2,30.09,SSE,151,1.0,9.0,68,0.00,,,0.01,997,Wunderground v.1.15,2013-06-07 16:50:00,
2013-06-07 11:55:00,64.2,53.0,30.09,SSE,155,5.0,6.0,67,0.00,,,0.01,983,Wunderground v.1.15,2013-06-07 16:55:00,
2013-06-07 12:00:00,64.4,54.8,30.09,SSE,164,5.0,8.0,71,0.00,,,0.01,1000,Wunderground v.1.15,2013-06-07 17:00:00,
2013-06-07 12:05:00,64.7,54.7,30.08,SSE,149,0.0,7.0,70,0.00,,,0.01,1009,Wunderground v.1.15,2013-06-07 17:05:00,
2013-06-07 12:10:00,64.7,53.9,30.08,NNW,329,0.0,4.0,68,0.00,,,0.01,1027,Wunderground v.1.15,2013-06-07 17:10:00,
2013-06-07 12:15:00,65.1,54.7,30.08,NNW,333,0.0,4.0,69,0.00,,,0.01,1048,Wunderground v.1.15,2013-06-07 17:15:00,
2013-06-07 12:20:00,65.5,53.0,30.08,SSE,168,4.0,4.0,64,0.00,,,0.01,1051,Wunderground v.1.15,2013-06-07 17:20:00,
2013-06-07 12:25:00,65.6,53.5,30.08,South,174,4.0,8.0,65,0.00,,,0.01,1100,Wunderground v.1.15,2013-06-07 17:25:00,
2013-06-07 12:30:00,65.4,52.5,30.08,South,175,0.0,3.0,63,0.00,,,0.01,1000,Wunderground v.1.15,2013-06-07 17:30:00,
2013-06-07 12:35:00,65.6,54.8,30.08,SE,129,0.0,11.0,68,0.00,,,0.01,990,Wunderground v.1.15,2013-06-07 17:35:00,
2013-06-07 12:40:00,66.2,55.3,30.07,SE,128,1.0,2.0,68,0.00,,,0.01,963,Wunderground v.1.15,2013-06-07 17:40:00,
2013-06-07 12:45:00,67.0,54.0,30.07,SE,128,0.0,5.0,63,0.00,,,0.01,1000,Wunderground v.1.15,2013-06-07 17:45:00,
2013-06-07 12:50:00,67.3,51.5,30.07,NNE,16,0.0,1.0,57,0.00,,,0.01,1000,Wunderground v.1.15,2013-06-07 17:50:00,
2013-06-07 12:55:00,67.6,50.9,30.07,ENE,69,0.0,8.0,55,0.00,,,0.01,926,Wunderground v.1.15,2013-06-07 17:55:00,
2013-06-07 13:00:00,67.7,47.3,30.07,SE,131,0.0,3.0,48,0.00,,,0.01,997,Wunderground v.1.15,2013-06-07 18:00:00,
2013-06-07 13:05:00,67.6,44.9,30.07,ESE,118,5.0,7.0,44,0.00,,,0.01,993,Wunderground v.1.15,2013-06-07 18:05:00,
2013-06-07 13:10:00,67.5,47.7,30.06,South,180,6.0,6.0,49,0.00,,,0.01,998,Wunderground v.1.15,2013-06-07 18:10:00,
2013-06-07 13:15:00,67.0,48.8,30.06,SSW,209,0.0,7.0,52,0.00,,,0.01,1004,Wunderground v.1.15,2013-06-07 18:15:00,
2013-06-07 13:20:00,67.1,48.9,30.06,South,174,6.0,6.0,52,0.00,,,0.01,1013,Wunderground v.1.15,2013-06-07 18:20:00,
2013-06-07 13:25:00,67.4,49.7,30.06,SSE,148,1.0,7.0,53,0.00,,,0.01,1027,Wunderground v.1.15,2013-06-07 18:25:00,
2013-06-07 13:30:00,67.7,49.4,30.06,SE,134,0.0,5.0,52,0.00,,,0.01,1078,Wunderground v.1.15,2013-06-07 18:30:00,
2013-06-07 13:35:00,68.1,50.8,30.06,ENE,59,5.0,7.0,54,0.00,,,0.01,1055,Wunderground v.1.15,2013-06-07 18:35:00,
2013-06-07 13:41:00,68.3,50.0,30.06,SE,130,6.0,6.0,52,0.00,,,0.01,1076,Wunderground v.1.15,2013-06-07 18:41:00,
2013-06-07 13:46:00,68.1,50.8,30.06,SE,132,0.0,6.0,54,0.00,,,0.01,930,Wunderground v.1.15,2013-06-07 18:46:00,
2013-06-07 13:51:00,68.3,53.4,30.06,ESE,109,1.0,4.0,59,0.00,,,0.01,1018,Wunderground v.1.15,2013-06-07 18:51:00,
2013-06-07 13:56:00,68.8,53.9,30.06,East,96,0.0,4.0,59,0.00,,,0.01,1129,Wunderground v.1.15,2013-06-07 18:56:00,
2013-06-07 14:02:00,69.4,50.5,30.06,ESE,113,6.0,6.0,51,0.00,,,0.01,1118,Wunderground v.1.15,2013-06-07 19:02:00,
2013-06-07 14:07:00,69.1,50.2,30.06,ESE,120,5.0,7.0,51,0.00,,,0.01,596,Wunderground v.1.15,2013-06-07 19:07:00,
2013-06-07 14:12:00,68.4,50.1,30.06,ESE,117,7.0,8.0,52,0.00,,,0.01,1158,Wunderground v.1.15,2013-06-07 19:12:00,
2013-06-07 14:17:00,68.1,51.3,30.06,ENE,67,4.0,9.0,55,0.00,,,0.01,425,Wunderground v.1.15,2013-06-07 19:17:00,
2013-06-07 14:22:00,68.6,50.3,30.06,North,5,2.0,3.0,52,0.00,,,0.01,216,Wunderground v.1.15,2013-06-07 19:22:00,
2013-06-07 14:27:00,68.7,52.8,30.06,North,10,0.0,3.0,57,0.00,,,0.01,1005,Wunderground v.1.15,2013-06-07 19:27:00,
2013-06-07 14:33:00,69.1,50.2,30.05,NNE,30,2.0,4.0,51,0.00,,,0.01,997,Wunderground v.1.15,2013-06-07 19:33:00,
2013-06-07 14:38:00,69.4,53.0,30.05,NNW,348,2.0,6.0,56,0.00,,,0.01,1004,Wunderground v.1.15,2013-06-07 19:38:00,
2013-06-07 14:43:00,69.9,50.9,30.05,North,5,1.0,3.0,51,0.00,,,0.01,1011,Wunderground v.1.15,2013-06-07 19:43:00,
2013-06-07 14:48:00,70.1,52.2,30.05,SE,130,5.0,8.0,53,0.00,,,0.01,1071,Wunderground v.1.15,2013-06-07 19:48:00,
2013-06-07 14:53:00,69.6,51.2,30.05,SSE,160,1.0,7.0,52,0.00,,,0.01,1014,Wunderground v.1.15,2013-06-07 19:53:00,
2013-06-07 14:58:00,69.4,52.5,30.05,SSE,159,1.0,7.0,55,0.00,,,0.01,986,Wunderground v.1.15,2013-06-07 19:58:00,
2013-06-07 15:03:00,69.4,52.0,30.05,SSW,203,0.0,5.0,54,0.00,,,0.01,967,Wunderground v.1.15,2013-06-07 20:03:00,
2013-06-07 15:09:00,69.8,50.9,30.04,North,9,0.0,7.0,51,0.00,,,0.01,993,Wunderground v.1.15,2013-06-07 20:09:00,
2013-06-07 15:14:00,70.3,51.8,30.04,NNW,346,6.0,6.0,52,0.00,,,0.01,399,Wunderground v.1.15,2013-06-07 20:14:00,
2013-06-07 15:19:00,69.6,52.2,30.04,NNW,332,0.0,6.0,54,0.00,,,0.01,232,Wunderground v.1.15,2013-06-07 20:19:00,
2013-06-07 15:24:00,69.0,52.2,30.04,NNW,329,0.0,4.0,55,0.00,,,0.01,230,Wunderground v.1.15,2013-06-07 20:24:00,
2013-06-07 15:29:00,68.7,51.9,30.04,NNW,330,0.0,4.0,55,0.00,,,0.01,976,Wunderground v.1.15,2013-06-07 20:29:00,
2013-06-07 15:35:00,69.1,50.7,30.03,WNW,302,0.0,4.0,52,0.00,,,0.01,933,Wunderground v.1.15,2013-06-07 20:35:00,
2013-06-07 15:40:00,69.9,52.0,30.03,ENE,58,2.0,3.0,53,0.00,,,0.01,664,Wunderground v.1.15,2013-06-07 20:40:00,
2013-06-07 15:45:00,70.2,52.8,30.04,ENE,74,3.0,8.0,54,0.00,,,0.01,756,Wunderground v.1.15,2013-06-07 20:45:00,
2013-06-07 15:50:00,70.3,51.8,30.04,ENE,71,0.0,2.0,52,0.00,,,0.01,294,Wunderground v.1.15,2013-06-07 20:50:00,
2013-06-07 15:55:00,70.3,50.8,30.04,ENE,70,0.0,3.0,50,0.00,,,0.01,838,Wunderground v.1.15,2013-06-07 20:55:00,
2013-06-07 16:00:00,70.1,54.6,30.04,North,360,0.0,1.0,58,0.00,,,0.01,860,Wunderground v.1.15,2013-06-07 21:00:00,
2013-06-07 16:05:00,70.3,50.8,30.04,North,360,0.0,2.0,50,0.00,,,0.01,274,Wunderground v.1.15,2013-06-07 21:05:00,
2013-06-07 16:11:00,70.1,54.6,30.03,East,86,4.0,4.0,58,0.00,,,0.01,425,Wunderground v.1.15,2013-06-07 21:11:00,
2013-06-07 16:16:00,70.1,52.2,30.03,NE,47,0.0,5.0,53,0.00,,,0.01,243,Wunderground v.1.15,2013-06-07 21:16:00,
2013-06-07 16:22:00,70.1,53.7,30.03,NE,47,0.0,1.0,56,0.00,,,0.01,246,Wunderground v.1.15,2013-06-07 21:22:00,
2013-06-07 16:27:00,69.8,52.4,30.03,NE,40,1.0,4.0,54,0.00,,,0.01,302,Wunderground v.1.15,2013-06-07 21:27:00,
2013-06-07 16:32:00,69.9,51.5,30.03,NE,42,2.0,3.0,52,0.00,,,0.01,770,Wunderground v.1.15,2013-06-07 21:32:00,
2013-06-07 16:37:00,70.3,53.9,30.03,NNE,32,2.0,5.0,56,0.00,,,0.01,759,Wunderground v.1.15,2013-06-07 21:37:00,
2013-06-07 16:42:00,70.5,52.5,30.03,ESE,117,0.0,5.0,53,0.00,,,0.01,708,Wunderground v.1.15,2013-06-07 21:42:00,
2013-06-07 16:47:00,70.2,51.2,30.03,ESE,117,0.0,6.0,51,0.00,,,0.01,686,Wunderground v.1.15,2013-06-07 21:47:00,
2013-06-07 16:52:00,70.1,52.2,30.03,East,88,2.0,6.0,53,0.00,,,0.01,679,Wunderground v.1.15,2013-06-07 21:52:00,
2013-06-07 16:57:00,70.2,51.7,30.03,East,85,0.0,6.0,52,0.00,,,0.01,635,Wunderground v.1.15,2013-06-07 21:57:00,
2013-06-07 17:02:00,70.1,51.1,30.02,SSE,150,1.0,5.0,51,0.00,,,0.01,608,Wunderground v.1.15,2013-06-07 22:02:00,
2013-06-07 17:08:00,70.3,53.4,30.02,SSE,149,0.0,5.0,55,0.00,,,0.01,594,Wunderground v.1.15,2013-06-07 22:08:00,
2013-06-07 17:13:00,70.8,50.7,30.02,SE,134,5.0,5.0,49,0.00,,,0.01,591,Wunderground v.1.15,2013-06-07 22:13:00,
2013-06-07 17:18:00,70.7,53.2,30.02,ESE,105,2.0,5.0,54,0.00,,,0.01,274,Wunderground v.1.15,2013-06-07 22:18:00,
2013-06-07 17:23:00,70.5,51.5,30.02,ENE,75,2.0,4.0,51,0.00,,,0.01,155,Wunderground v.1.15,2013-06-07 22:23:00,
2013-06-07 17:28:00,70.3,52.9,30.02,ENE,75,0.0,4.0,54,0.00,,,0.01,260,Wunderground v.1.15,2013-06-07 22:28:00,
2013-06-07 17:33:00,70.1,53.7,30.01,ENE,75,0.0,2.0,56,0.00,,,0.01,183,Wunderground v.1.15,2013-06-07 22:33:00,
2013-06-07 17:38:00,70.1,51.1,30.02,ENE,71,0.0,4.0,51,0.00,,,0.01,236,Wunderground v.1.15,2013-06-07 22:38:00,
2013-06-07 17:43:00,69.9,53.0,30.01,ENE,71,0.0,1.0,55,0.00,,,0.01,162,Wunderground v.1.15,2013-06-07 22:43:00,
2013-06-07 17:48:00,69.7,54.3,30.01,ENE,71,0.0,1.0,58,0.00,,,0.01,156,Wunderground v.1.15,2013-06-07 22:48:00,
2013-06-07 17:53:00,69.3,53.4,30.01,ENE,71,0.0,0.0,57,0.00,,,0.01,132,Wunderground v.1.15,2013-06-07 22:53:00,
2013-06-07 17:59:00,68.8,54.3,30.01,ENE,71,0.0,0.0,60,0.00,,,0.01,109,Wunderground v.1.15,2013-06-07 22:59:00,
2013-06-07 18:03:00,68.3,54.3,30.01,ENE,71,0.0,0.0,61,0.00,,,0.01,102,Wunderground v.1.15,2013-06-07 23:03:00,
2013-06-07 18:09:00,67.7,51.9,30.01,ENE,71,0.0,0.0,57,0.00,,,0.01,88,Wunderground v.1.15,2013-06-07 23:09:00,
2013-06-07 18:14:00,67.3,50.6,30.01,ENE,71,0.0,0.0,55,0.00,,,0.01,95,Wunderground v.1.15,2013-06-07 23:14:00,
2013-06-07 18:19:00,67.1,50.4,30.01,ENE,71,0.0,0.0,55,0.00,,,0.01,130,Wunderground v.1.15,2013-06-07 23:19:00,
2013-06-07 18:24:00,67.1,50.4,30.01,ENE,71,0.0,0.0,55,0.00,,,0.01,148,Wunderground v.1.15,2013-06-07 23:24:00,
2013-06-07 18:29:00,67.4,52.6,30.01,ENE,71,0.0,0.0,59,0.00,,,0.01,151,Wunderground v.1.15,2013-06-07 23:29:00,
2013-06-07 18:34:00,67.4,53.0,30.01,ENE,71,0.0,0.0,60,0.00,,,0.01,265,Wunderground v.1.15,2013-06-07 23:34:00,
2013-06-07 18:39:00,67.7,54.6,30.01,ENE,71,0.0,1.0,63,0.00,,,0.01,367,Wunderground v.1.15,2013-06-07 23:39:00,
2013-06-07 18:44:00,68.1,51.8,30.01,ENE,70,1.0,5.0,56,0.00,,,0.01,223,Wunderground v.1.15,2013-06-07 23:44:00,
2013-06-07 18:49:00,68.3,52.0,30.01,ENE,70,0.0,5.0,56,0.00,,,0.01,139,Wunderground v.1.15,2013-06-07 23:49:00,
2013-06-07 18:54:00,68.2,53.8,30.01,ENE,70,0.0,2.0,60,0.00,,,0.01,102,Wunderground v.1.15,2013-06-07 23:54:00,
2013-06-07 18:59:00,67.7,52.4,30.01,ENE,70,0.0,2.0,58,0.00,,,0.01,79,Wunderground v.1.15,2013-06-07 23:59:00,
2013-06-07 19:04:00,67.2,51.9,30.01,ENE,70,0.0,0.0,58,0.00,,,0.01,65,Wunderground v.1.15,2013-06-08 00:04:00,
2013-06-07 19:10:00,66.8,51.5,30.01,ENE,70,0.0,0.0,58,0.00,,,0.01,54,Wunderground v.1.15,2013-06-08 00:10:00,
2013-06-07 19:15:00,66.6,50.9,30.01,ENE,70,0.0,0.0,57,0.00,,,0.01,46,Wunderground v.1.15,2013-06-08 00:15:00,
2013-06-07 19:20:00,66.3,51.1,30.01,ENE,70,0.0,0.0,58,0.00,,,0.01,39,Wunderground v.1.15,2013-06-08 00:20:00,
2013-06-07 19:25:00,65.9,51.6,30.01,ENE,70,0.0,0.0,60,0.00,,,0.01,37,Wunderground v.1.15,2013-06-08 00:25:00,
2013-06-07 19:30:00,65.4,53.3,30.01,ENE,70,0.0,0.0,65,0.00,,,0.01,33,Wunderground v.1.15,2013-06-08 00:30:00,
2013-06-07 19:35:00,64.9,53.7,30.01,ENE,70,0.0,0.0,67,0.00,,,0.01,32,Wunderground v.1.15,2013-06-08 00:35:00,
2013-06-07 19:40:00,64.3,53.1,30.01,ENE,70,0.0,0.0,67,0.00,,,0.01,30,Wunderground v.1.15,2013-06-08 00:40:00,
2013-06-07 19:45:00,63.7,52.5,30.01,ENE,70,0.0,0.0,67,0.00,,,0.01,26,Wunderground v.1.15,2013-06-08 00:45:00,
2013-06-07 19:50:00,63.2,52.5,30.01,ENE,70,0.0,0.0,68,0.00,,,0.01,25,Wunderground v.1.15,2013-06-08 00:50:00,
2013-06-07 19:55:00,62.9,52.2,30.01,ENE,70,0.0,0.0,68,0.00,,,0.01,21,Wunderground v.1.15,2013-06-08 00:55:00,
2013-06-07 20:00:00,62.6,53.4,30.01,ENE,70,0.0,0.0,72,0.00,,,0.01,18,Wunderground v.1.15,2013-06-08 01:00:00,
2013-06-07 20:05:00,62.3,53.5,30.01,ENE,70,0.0,0.0,73,0.00,,,0.01,16,Wunderground v.1.15,2013-06-08 01:05:00,
2013-06-07 20:10:00,61.7,52.2,30.01,ENE,70,0.0,0.0,71,0.00,,,0.01,12,Wunderground v.1.15,2013-06-08 01:10:00,
2013-06-07 20:16:00,61.1,52.4,30.01,ENE,70,0.0,1.0,73,0.00,,,0.01,9,Wunderground v.1.15,2013-06-08 01:16:00,
2013-06-07 20:21:00,60.7,51.6,30.01,ENE,70,0.0,0.0,72,0.00,,,0.01,7,Wunderground v.1.15,2013-06-08 01:21:00,
2013-06-07 20:26:00,60.5,51.8,30.01,ENE,70,0.0,0.0,73,0.00,,,0.01,5,Wunderground v.1.15,2013-06-08 01:26:00,
2013-06-07 20:32:00,60.3,51.6,30.01,ENE,70,0.0,0.0,73,0.00,,,0.01,0,Wunderground v.1.15,2013-06-08 01:32:00,
2013-06-07 20:37:00,60.1,51.8,30.01,ENE,70,0.0,0.0,74,0.00,,,0.01,0,Wunderground v.1.15,2013-06-08 01:37:00,
2013-06-07 20:42:00,59.9,51.6,30.01,ENE,70,0.0,0.0,74,0.00,,,0.01,0,Wunderground v.1.15,2013-06-08 01:42:00,
2013-06-07 20:47:00,59.8,52.2,30.01,ENE,70,0.0,0.0,76,0.00,,,0.01,0,Wunderground v.1.15,2013-06-08 01:47:00,
2013-06-07 20:52:00,59.7,52.8,30.01,ENE,70,0.0,0.0,78,0.00,,,0.01,0,Wunderground v.1.15,2013-06-08 01:52:00,
2013-06-07 20:57:00,59.5,53.0,30.01,ENE,70,0.0,0.0,79,0.00,,,0.01,0,Wunderground v.1.15,2013-06-08 01:57:00,
2013-06-07 21:02:00,59.3,52.8,30.02,ENE,70,0.0,0.0,79,0.00,,,0.01,0,Wunderground v.1.15,2013-06-08 02:02:00,
2013-06-07 21:07:00,59.2,53.0,30.02,ENE,70,0.0,0.0,80,0.00,,,0.01,0,Wunderground v.1.15,2013-06-08 02:07:00,
2013-06-07 21:13:00,59.0,52.8,30.02,ENE,70,0.0,0.0,80,0.00,,,0.01,0,Wunderground v.1.15,2013-06-08 02:13:00,
2013-06-07 21:18:00,58.8,52.3,30.02,ENE,70,0.0,0.0,79,0.00,,,0.01,0,Wunderground v.1.15,2013-06-08 02:18:00,
2013-06-07 21:23:00,58.7,52.2,30.02,ENE,70,0.0,0.0,79,0.00,,,0.01,0,Wunderground v.1.15,2013-06-08 02:23:00,
2013-06-07 21:28:00,58.7,52.9,30.02,ENE,70,0.0,0.0,81,0.00,,,0.01,0,Wunderground v.1.15,2013-06-08 02:28:00,
2013-06-07 21:33:00,58.7,52.9,30.02,ENE,70,0.0,0.0,81,0.00,,,0.01,0,Wunderground v.1.15,2013-06-08 02:33:00,
2013-06-07 21:38:00,58.6,52.8,30.02,ENE,70,0.0,0.0,81,0.00,,,0.01,0,Wunderground v.1.15,2013-06-08 02:38:00,
2013-06-07 21:43:00,58.4,52.9,30.02,ENE,70,0.0,0.0,82,0.00,,,0.01,0,Wunderground v.1.15,2013-06-08 02:43:00,
2013-06-07 21:48:00,58.4,52.9,30.02,ENE,70,0.0,0.0,82,0.00,,,0.01,0,Wunderground v.1.15,2013-06-08 02:48:00,
2013-06-07 21:53:00,58.3,52.8,30.02,ENE,70,0.0,0.0,82,0.00,,,0.01,0,Wunderground v.1.15,2013-06-08 02:53:00,
2013-06-07 21:59:00,58.2,52.7,30.02,ENE,70,0.0,0.0,82,0.00,,,0.01,0,Wunderground v.1.15,2013-06-08 02:59:00,
2013-06-07 22:04:00,58.2,53.4,30.02,ENE,70,0.0,1.0,84,0.00,,,0.01,0,Wunderground v.1.15,2013-06-08 03:04:00,
2013-06-07 22:09:00,58.0,52.5,30.02,ENE,70,0.0,1.0,82,0.00,,,0.01,0,Wunderground v.1.15,2013-06-08 03:09:00,
2013-06-07 22:14:00,57.8,52.3,30.02,ENE,70,0.0,0.0,82,0.00,,,0.01,0,Wunderground v.1.15,2013-06-08 03:14:00,
2013-06-07 22:19:00,57.8,53.0,30.02,ENE,70,0.0,1.0,84,0.00,,,0.01,0,Wunderground v.1.15,2013-06-08 03:19:00,
2013-06-07 22:24:00,57.7,52.6,30.02,ENE,70,0.0,0.0,83,0.00,,,0.01,0,Wunderground v.1.15,2013-06-08 03:24:00,
2013-06-07 22:29:00,57.6,52.8,30.02,ENE,70,0.0,0.0,84,0.00,,,0.01,0,Wunderground v.1.15,2013-06-08 03:29:00,
2013-06-07 22:34:00,57.5,53.0,30.02,ENE,70,0.0,0.0,85,0.00,,,0.01,0,Wunderground v.1.15,2013-06-08 03:34:00,
2013-06-07 22:39:00,57.4,52.6,30.02,ENE,70,0.0,0.0,84,0.00,,,0.01,0,Wunderground v.1.15,2013-06-08 03:39:00,
2013-06-07 22:44:00,57.2,52.4,30.02,ENE,70,0.0,0.0,84,0.00,,,0.01,0,Wunderground v.1.15,2013-06-08 03:44:00,
2013-06-07 22:49:00,57.1,52.6,30.02,ENE,70,0.0,2.0,85,0.00,,,0.01,0,Wunderground v.1.15,2013-06-08 03:49:00,
2013-06-07 22:54:00,56.9,52.4,30.02,ENE,70,0.0,1.0,85,0.00,,,0.01,0,Wunderground v.1.15,2013-06-08 03:54:00,
2013-06-07 22:59:00,56.7,52.2,30.02,ENE,70,0.0,1.0,85,0.00,,,0.01,0,Wunderground v.1.15,2013-06-08 03:59:00,
2013-06-07 23:01:00,56.7,51.9,30.02,ENE,70,0.0,0.0,84,0.00,,,0.01,0,Wunderground v.1.15,2013-06-08 04:01:00,
2013-06-07 23:02:00,56.7,51.9,30.02,ENE,70,0.0,0.0,84,0.00,,,0.01,0,Wunderground v.1.15,2013-06-08 04:02:00,
2013-06-07 23:07:00,56.5,51.7,30.02,ENE,70,0.0,0.0,84,0.00,,,0.01,0,Wunderground v.1.15,2013-06-08 04:07:00,
2013-06-07 23:12:00,56.5,52.0,30.02,ENE,70,0.0,0.0,85,0.00,,,0.01,0,Wunderground v.1.15,2013-06-08 04:12:00,
2013-06-07 23:17:00,56.4,51.9,30.02,ENE,70,0.0,0.0,85,0.00,,,0.01,0,Wunderground v.1.15,2013-06-08 04:17:00,
2013-06-07 23:22:00,56.3,51.5,30.02,ENE,70,0.0,0.0,84,0.00,,,0.01,0,Wunderground v.1.15,2013-06-08 04:22:00,
2013-06-07 23:27:00,56.2,51.4,30.02,ENE,70,0.0,0.0,84,0.00,,,0.01,0,Wunderground v.1.15,2013-06-08 04:27:00,
2013-06-07 23:32:00,56.2,51.7,30.02,ENE,70,0.0,0.0,85,0.00,,,0.01,0,Wunderground v.1.15,2013-06-08 04:32:00,
2013-06-07 23:37:00,56.1,51.7,30.02,ENE,70,0.0,0.0,85,0.00,,,0.01,0,Wunderground v.1.15,2013-06-08 04:37:00,
2013-06-07 23:42:00,56.0,51.6,30.02,ENE,70,0.0,0.0,85,0.00,,,0.01,0,Wunderground v.1.15,2013-06-08 04:42:00,
2013-06-07 23:47:00,56.1,52.0,30.02,ENE,70,0.0,0.0,86,0.00,,,0.01,0,Wunderground v.1.15,2013-06-08 04:47:00,
2013-06-07 23:52:00,56.1,52.0,30.02,ENE,70,0.0,0.0,86,0.00,,,0.01,0,Wunderground v.1.15,2013-06-08 04:52:00,
2013-06-07 23:57:00,56.0,51.9,30.02,ENE,70,0.0,0.0,86,0.00,,,0.00,0,Wunderground v.1.15,2013-06-08 04:57:00,